RH
84 76 66 64 69 77 72 79 72 68 69 69 68 68 67 67 65 67 64 60 68 63 70 74 72 75 73 71 70 73 76 74 80 88 81 80 76 77 89 87 94 93 84
87 72 68 70 78 76 77 83 65 60 64 64 66 73 72 73 73 73 61 62 60 64 59 66 69 72 73 71 74 78 84 82 85 93 88 96 83 85 71 82 83 74 90
89 76 75 76 79 81 85 77 60 58 57 54 63 64 67 67 68 61 65 63 62 64 69 66 70 73 73 76 77 83 87 86 81 86 94 92 92 86 78 68 84 73 85
89 80 80 84 83 81 89 65 57 52 49 55 58 60 67 71 67 69 68 68 67 67 69 70 70 70 72 76 78 65 80 89 87 83 71 87 83 87 88 81 73 82 80
88 86 83 79 79 84 86 63 53 50 52 54 57 65 67 71 73 76 70 66 70 67 66 70 69 71 72 75 78 80 79 83 89 88 89 87 87 86 92 84 84 79 81
91 88 86 81 86 84 65 54 50 50 53 55 57 61 66 69 73 65 68 68 66 68 70 66 69 70 73 75 74 76 82 84 83 86 88 90 90 85 91 92 86 84 72
92 91 88 89 77 65 56 50 50 51 53 54 57 61 65 69 73 70 71 70 69 69 70 69 70 70 68 72 73 76 79 82 86 86 87 85 86 81 83 86 89 89 77
92 91 89 84 68 58 53 50 51 51 53 55 59 63 64 73 71 73 70 71 71 71 68 67 66 67 67 69 71 77 79 80 86 91 84 85 84 82 84 87 91 92 85
91 90 86 73 62 53 51 50 51 51 52 56 62 63 65 70 70 72 73 72 71 63 61 67 69 68 68 68 76 75 80 69 79 87 88 87 84 84 85 84 87 94 94
91 88 76 64 55 51 52 52 53 52 55 59 62 56 67 70 70 70 72 70 70 69 69 69 69 68 66 66 67 74 73 76 74 70 79 84 83 82 82 88 83 87 92
88 77 65 56 53 53 53 54 54 56 59 62 63 69 67 70 70 72 70 69 69 69 69 70 69 67 68 67 69 69 68 89 82 74 74 75 75 83 83 85 83 86 91
76 67 58 56 56 54 53 54 56 60 61 63 66 66 69 71 71 69 69 69 69 67 69 68 67 67 68 68 71 74 70 81 79 76 76 76 67 79 82 85 85 85 79
63 58 57 58 55 54 54 55 58 61 63 63 68 65 66 69 71 68 66 67 69 70 68 65 70 70 69 71 72 72 73 73 82 79 77 78 76 81 82 87 88 86 79
55 58 61 59 55 53 55 58 59 64 66 65 66 68 67 66 68 66 68 67 66 67 67 67 68 69 69 69 70 72 76 75 75 79 79 76 78 82 86 84 88 82 89
57 57 60 58 57 56 59 60 62 63 66 70 66 66 64 63 63 62 62 62 63 62 66 67 68 69 68 62 68 74 90 90 89 90 82 82 80 78 76 76 88 91 92
57 56 52 51 54 53 58 52 58 64 63 70 68 61 60 58 59 60 60 61 63 65 67 68 70 73 64 73 74 75 94 89 86 88 84 92 83 82 77 74 75 82 84
58 54 54 54 54 59 58 67 66 66 68 66 62 59 57 58 59 59 62 64 67 67 71 72 73 75 74 76 75 84 93 95 90 93 91 90 80 83 79 80 75 72 74
52 53 58 58 63 66 66 64 64 66 64 64 61 58 59 60 61 63 65 68 68 72 74 74 73 74 68 75 73 78 94 91 88 86 86 78 81 85 79 85 88 82 74
59 62 65 65 72 72 70 68 66 66 64 62 62 60 62 65 65 68 71 71 74 73 73 67 72 77 73 74 76 86 94 88 86 80 80 81 86 86 81 93 96 97 81
63 65 68 71 74 74 74 72 69 69 68 62 63 63 64 66 71 73 75 71 72 68 69 69 68 73 75 78 83 89 95 94 90 88 84 80 80 87 82 92 96 94 87
68 69 74 76 75 73 73 72 71 74 64 64 65 64 66 70 72 72 72 75 80 74 78 75 74 78 79 86 82 85 95 92 88 85 81 75 75 78 79 85 97 91 79
68 73 77 72 70 69 74 75 78 66 69 68 69 71 72 69 66 75 79 74 82 90 87 84 80 69 69 74 79 82 90 92 96 93 89 84 77 72 74 79 82 86 94
74 76 77 74 76 75 78 82 76 74 72 76 79 77 74 71 70 78 84 84 83 88 87 81 80 78 70 72 78 84 83 85 93 92 88 81 80 77 82 78 75 76 89
75 74 75 80 82 81 72 83 80 76 80 87 85 80 81 77 77 72 73 84 88 90 82 85 87 83 79 74 76 81 84 84 84 84 88 88 92 94 87 81 85 94 97
72 71 78 76 84 86 86 83 74 85 87 87 86 84 80 87 83 81 82 84 84 89 96 93 94 94 90 80 84 96 96 94 92 89 98 98 95 98 98 95 97 96 98
76 76 76 82 83 85 84 80 79 82 90 90 81 85 86 84 86 88 86 74 74 76 80 83 88 93 89 90 96 97 97 96 96 98 98 97 92 98 96 95 95 98 98
Wind_Speed
6 7 7 7 7 5 6 4 3 3 2 3 3 3 4 4 4 4 6 7 5 8 6 5 6 6 6 7 8 8 9 7 6 8 8 8 11 10 3 6 7 7 10
7 8 7 7 7 6 6 5 4 3 3 1 1 1 2 3 4 4 5 6 6 7 8 7 8 7 7 8 7 7 6 5 4 5 8 5 5 4 4 4 6 10 7
12 10 9 9 6 7 7 6 5 4 2 1 2 3 3 3 2 3 4 4 7 8 8 9 8 8 6 7 8 7 5 8 6 5 4 5 4 11 4 8 5 11 7
8 8 9 8 8 7 6 5 5 3 1 1 1 1 2 3 3 4 4 6 7 7 8 8 8 8 7 8 7 7 7 6 8 5 4 5 7 5 8 4 7 5 8
13 12 11 9 6 7 6 5 5 1 0 2 2 2 3 4 4 4 6 6 5 6 7 8 8 8 7 7 8 9 8 6 6 6 6 5 6 8 8 10 10 7 4
10 8 7 6 6 6 5 5 3 0 2 3 3 4 6 6 5 7 6 6 6 5 5 8 8 8 8 8 8 9 9 8 8 6 6 6 5 7 7 7 10 12 6
9 8 8 7 7 7 5 4 2 1 3 3 5 5 6 6 6 8 7 9 7 6 7 8 8 7 9 9 9 9 9 8 7 8 6 6 6 6 8 9 9 8 8
8 8 8 7 7 7 6 4 2 2 4 5 6 5 6 4 5 6 7 7 7 8 10 8 9 10 10 9 9 8 8 8 7 8 8 6 6 6 7 7 8 9 7
7 7 7 7 7 6 5 4 2 3 4 5 5 6 5 6 7 7 7 7 8 9 10 10 10 10 11 11 9 8 8 10 8 8 8 7 6 6 6 7 8 7 6
6 6 7 7 5 6 4 4 3 3 5 6 5 6 6 6 7 7 8 9 9 9 11 11 11 11 11 11 11 9 10 10 8 8 9 7 5 7 6 6 7 7 7
7 7 7 6 6 6 4 3 4 5 5 5 5 6 7 7 7 8 9 10 10 10 11 11 11 12 12 11 10 11 13 10 8 9 11 10 9 7 6 6 6 7 6
8 8 7 7 6 5 4 4 5 5 5 6 6 8 8 8 9 10 10 10 11 10 11 11 12 12 12 12 11 12 12 10 11 10 11 12 8 8 7 5 7 6 8
9 7 6 6 5 4 3 4 4 5 6 7 7 9 10 9 10 10 11 11 11 11 11 12 12 12 12 13 12 11 12 12 11 11 11 11 10 8 7 6 6 6 6
8 6 6 5 3 2 2 4 6 6 6 7 8 9 10 10 11 12 12 12 11 12 12 12 13 13 13 13 13 12 12 13 12 12 11 11 11 10 8 7 7 7 5
7 6 5 4 1 2 4 5 5 6 6 7 9 10 11 11 11 12 12 12 12 13 13 13 13 13 12 10 12 12 12 12 12 12 13 11 14 19 16 8 7 6 5
8 7 5 4 2 4 4 6 7 7 7 8 10 10 11 12 12 13 13 14 14 13 13 13 13 14 11 21 23 19 12 12 12 11 11 10 17 16 19 20 19 14 7
8 7 5 3 3 3 3 5 6 7 7 8 10 11 11 13 13 14 15 15 15 14 14 14 14 14 13 24 24 23 11 11 10 10 10 8 8 13 10 13 18 16 18
8 6 5 3 1 2 4 5 6 6 8 9 10 11 12 14 15 15 15 15 13 14 14 14 14 14 12 25 25 24 12 11 11 10 11 11 10 10 10 9 10 9 8
7 5 4 2 1 3 4 5 7 7 8 9 11 12 13 15 15 16 16 15 14 14 14 14 15 14 14 25 25 20 10 10 10 9 10 11 11 15 19 11 10 7 8
7 6 5 2 3 4 5 5 6 7 8 10 12 12 13 14 15 16 16 13 14 16 13 15 15 19 16 22 25 19 8 9 7 8 11 19 15 19 20 11 10 11 10
7 6 5 4 2 3 4 5 6 7 9 11 12 13 13 14 14 15 14 14 14 14 15 15 14 14 15 15 23 22 10 8 7 7 7 7 17 17 19 19 10 12 10
6 5 4 3 3 4 4 5 6 9 10 11 12 13 13 12 12 15 14 15 14 13 13 14 13 10 11 18 19 22 20 17 9 8 6 9 18 18 20 16 16 17 17
5 4 4 3 4 5 3 6 7 8 10 11 13 13 14 13 13 14 14 12 12 10 11 11 12 11 10 9 20 21 20 18 10 6 11 19 19 20 17 21 20 18 7
5 3 4 5 5 5 5 5 7 8 10 12 13 13 13 15 12 10 11 11 10 11 11 11 12 12 11 10 9 8 9 15 12 14 11 13 16 18 14 13 11 7 6
4 4 4 2 4 5 6 6 8 7 10 11 12 12 11 11 12 10 11 11 11 13 13 12 11 12 11 12 21 18 10 9 11 14 8 8 8 7 7 7 8 6 5
4 4 3 3 4 5 6 7 8 8 9 11 11 11 10 10 10 10 11 18 21 26 27 27 20 12 22 26 26 23 22 21 19 9 8 8 8 7 7 7 8 6 8
Wind_Direction
195 183 184 180 181 186 172 169 120 72 62 25 358 346 337 333 334 326 325 317 315 315 309 294 301 295 301 296 298 304 303 309 306 302 315 286 269 262 267 285 271 269 275
190 192 191 194 195 187 187 176 136 104 78 56 292 265 279 281 269 289 305 302 315 312 313 313 307 305 307 308 304 309 307 304 337 312 292 316 306 343 329 316 333 354 317
192 194 197 204 202 200 194 184 144 98 84 5 338 306 286 291 295 299 292 306 311 306 305 308 306 305 305 304 303 302 311 314 313 316 300 315 308 343 303 317 327 343 343
189 194 199 206 201 206 192 159 129 101 148 2 287 313 267 269 249 288 289 297 285 292 296 299 304 303 303 299 300 309 305 302 307 310 274 305 301 305 312 300 317 330 341
191 197 202 205 188 169 176 152 113 110 15 357 350 312 286 265 287 296 296 300 287 286 294 298 302 301 300 295 294 299 298 290 285 290 293 295 284 268 259 291 304 320 344
191 197 199 164 154 148 149 126 118 180 27 347 338 329 319 312 316 315 312 311 306 300 286 295 298 294 292 296 299 296 287 283 282 281 279 275 284 300 303 307 310 301 315
181 190 179 168 152 155 147 123 111 2 348 344 339 330 313 305 307 310 310 314 311 309 301 298 294 299 299 297 294 291 286 281 277 278 278 278 277 285 286 292 298 291 313
181 188 174 161 149 153 128 114 73 348 342 341 324 315 313 308 299 287 299 301 304 304 303 295 301 297 299 298 293 285 282 277 272 271 276 277 274 273 274 277 293 298 293
177 168 144 139 139 127 120 111 52 350 341 324 314 304 304 292 297 297 292 292 290 294 303 300 297 297 299 297 288 289 282 287 277 271 272 271 273 272 272 278 278 277 287
149 131 130 130 120 116 109 82 41 348 322 313 295 309 288 294 300 301 294 294 292 294 297 297 298 301 301 301 297 290 284 280 284 288 273 267 278 282 280 281 286 280 280
142 137 125 118 117 102 82 57 11 339 311 300 305 308 313 306 298 292 292 294 296 296 296 296 299 302 301 300 297 293 288 273 279 286 284 277 277 273 277 275 278 283 276
138 130 126 122 104 85 50 17 343 312 305 314 317 315 305 298 297 296 292 293 294 294 294 296 296 297 296 296 295 293 291 284 280 282 282 282 271 269 276 273 275 272 282
125 124 121 108 94 64 22 339 311 322 328 323 313 310 305 300 294 294 294 295 292 293 295 294 292 293 293 292 290 286 285 282 273 270 270 273 274 270 270 263 266 271 277
139 128 113 104 91 43 330 329 337 337 313 312 310 306 302 300 296 296 296 295 297 297 296 293 292 291 291 289 288 284 277 273 270 265 261 264 265 263 259 259 257 261 259
139 134 136 144 114 342 357 350 327 305 305 305 311 305 303 300 299 301 301 301 301 298 295 295 293 291 288 286 286 279 274 265 266 259 255 255 257 260 258 251 240 240 244
140 143 145 130 56 15 352 332 312 309 314 309 302 306 307 306 307 306 307 305 302 302 299 297 294 293 289 292 296 294 282 274 272 274 270 249 260 268 273 272 267 247 242
150 152 141 111 50 359 329 304 305 309 309 307 308 309 309 312 312 310 309 306 307 305 300 297 293 291 290 294 295 293 286 280 278 271 268 274 259 254 250 264 273 269 259
143 135 126 103 31 343 318 313 318 307 309 311 310 311 317 314 312 311 309 309 306 302 299 298 295 290 291 297 302 297 289 279 271 265 263 262 264 258 259 256 257 259 253
126 128 128 131 84 350 332 325 315 313 319 317 314 316 317 312 312 312 311 306 302 302 300 296 297 295 295 297 299 303 291 277 270 265 259 260 251 248 257 249 256 241 247
125 129 126 108 49 351 343 324 318 322 317 317 313 313 310 310 309 308 304 302 301 298 301 300 298 295 298 296 299 298 280 274 266 257 250 257 250 247 250 241 236 244 242
126 114 101 91 40 341 345 332 319 314 311 307 308 310 310 311 304 301 302 301 300 302 300 298 298 293 287 287 294 296 288 277 272 264 262 255 258 266 263 252 221 224 232
113 100 89 56 20 8 357 319 306 308 302 309 312 313 314 311 306 303 303 306 306 305 305 302 300 295 291 288 291 294 292 288 282 272 255 248 253 260 262 264 256 242 223
118 103 84 42 14 1 329 310 301 304 316 317 313 314 313 309 305 312 311 312 313 310 308 308 304 303 302 296 297 297 297 294 284 273 267 269 266 261 255 257 253 251 237
112 102 63 34 352 335 323 280 297 319 321 313 316 317 314 313 318 316 311 310 311 313 308 308 310 306 302 299 295 280 274 274 273 266 266 259 261 253 245 245 251 244 203
103 94 72 29 338 324 311 308 327 323 317 316 315 316 309 315 319 313 312 312 308 310 316 311 306 307 303 299 298 297 288 273 261 268 253 248 247 236 224 226 233 208 205
114 92 67 21 338 320 316 324 328 321 317 318 322 312 321 322 318 319 314 313 321 323 322 320 319 313 308 312 313 310 304 299 290 270 248 238 239 228 215 213 210 211 193